TimeCST,TemperatureF,Dew PointF,Humidity,Sea Level PressureIn,VisibilityMPH,Wind Direction,Wind SpeedMPH,Gust SpeedMPH,PrecipitationIn,Events,Conditions,WindDirDegrees,DateUTC
12:53 AM,41.0,36.0,82,30.32,10.0,Calm,Calm,-,N/A,,Clear,0,2013-01-19 06:53:00
1:53 AM,41.0,37.9,89,30.31,10.0,Calm,Calm,-,N/A,,Clear,0,2013-01-19 07:53:00
2:53 AM,39.9,37.9,93,30.30,10.0,Calm,Calm,-,N/A,,Clear,0,2013-01-19 08:53:00
3:53 AM,42.1,39.9,92,30.29,10.0,North,3.5,-,N/A,,Clear,10,2013-01-19 09:53:00
4:53 AM,41.0,39.0,93,30.27,10.0,Calm,Calm,-,N/A,,Clear,0,2013-01-19 10:53:00
5:53 AM,39.0,37.0,93,30.26,7.0,ESE,3.5,-,N/A,,Clear,120,2013-01-19 11:53:00
6:53 AM,39.9,39.0,97,30.27,6.0,Calm,Calm,-,N/A,,Clear,0,2013-01-19 12:53:00
7:53 AM,39.0,39.0,100,30.29,4.0,Calm,Calm,-,N/A,,Clear,0,2013-01-19 13:53:00
8:53 AM,48.0,45.0,89,30.31,5.0,North,3.5,-,N/A,,Clear,360,2013-01-19 14:53:00
9:53 AM,52.0,46.0,80,30.33,8.0,Calm,Calm,-,N/A,,Clear,0,2013-01-19 15:53:00
10:53 AM,59.0,46.9,64,30.32,10.0,South,8.1,-,N/A,,Clear,170,2013-01-19 16:53:00
11:53 AM,63.0,45.0,52,30.28,10.0,SSW,13.8,17.3,N/A,,Clear,210,2013-01-19 17:53:00
12:53 PM,64.9,43.0,45,30.24,10.0,SW,13.8,17.3,N/A,,Clear,220,2013-01-19 18:53:00
1:53 PM,64.9,43.0,45,30.20,10.0,South,10.4,-,N/A,,Clear,180,2013-01-19 19:53:00
2:53 PM,66.9,42.1,40,30.18,10.0,South,6.9,-,N/A,,Clear,190,2013-01-19 20:53:00
3:53 PM,68.0,41.0,37,30.16,10.0,SSW,6.9,-,N/A,,Clear,210,2013-01-19 21:53:00
4:53 PM,66.9,39.9,37,30.16,10.0,South,6.9,-,N/A,,Clear,180,2013-01-19 22:53:00
5:53 PM,66.0,39.9,38,30.16,10.0,Calm,Calm,-,N/A,,Clear,0,2013-01-19 23:53:00
6:53 PM,55.9,42.1,60,30.18,10.0,Calm,Calm,-,N/A,,Clear,0,2013-01-20 00:53:00
7:53 PM,52.0,43.0,71,30.21,10.0,Calm,Calm,-,N/A,,Clear,0,2013-01-20 01:53:00
8:53 PM,48.9,42.1,77,30.22,10.0,Calm,Calm,-,N/A,,Clear,0,2013-01-20 02:53:00
9:53 PM,46.9,42.1,83,30.23,9.0,Calm,Calm,-,N/A,,Clear,0,2013-01-20 03:53:00